| time (UTC) | temp F | wind direction | speed MPH | gust MPH | rain 1hr in | rain 24hr in | rain mn in | humidity % | barometer mb |
| 20260510174211 | 80 | 321 | 1.0 | 2.0 | 0.00 | 0.00 | 0.00 | 41 | 1018.4 |
| 20260510173706 | 81 | 261 | 1.0 | 2.0 | 0.00 | 0.00 | 0.00 | 39 | 1018.4 |
| 20260510173202 | 82 | 196 | 0.0 | 3.0 | 0.00 | 0.00 | 0.00 | 38 | 1018.5 |
| 20260510172658 | 82 | 243 | 0.0 | 3.0 | 0.00 | 0.00 | 0.00 | 39 | 1018.5 |
| 20260510172154 | 79 | 207 | 0.0 | 2.0 | 0.00 | 0.00 | 0.00 | 45 | 1018.3 |
| 20260510171651 | 79 | 20 | 1.0 | 2.0 | 0.00 | 0.00 | 0.00 | 44 | 1018.7 |
| 20260510171149 | 79 | 44 | 2.0 | 3.0 | 0.00 | 0.00 | 0.00 | 44 | 1018.6 |
| 20260510170645 | 79 | 21 | 2.0 | 3.0 | 0.00 | 0.00 | 0.00 | 42 | 1018.7 |
| 20260510170141 | 79 | 239 | 1.0 | 2.0 | 0.00 | 0.00 | 0.00 | 44 | 1018.7 |
| 20260510165637 | 79 | 247 | 0.0 | 1.0 | 0.00 | 0.00 | 0.00 | 48 | 1018.3 |
| 20260510165133 | 79 | 223 | 0.0 | 1.0 | 0.00 | 0.00 | 0.00 | 46 | 1018.8 |
| 20260510164631 | 80 | 239 | 0.0 | 1.0 | 0.00 | 0.00 | 0.00 | 44 | 1018.9 |
| 20260510164127 | 80 | 209 | 0.0 | 3.0 | 0.00 | 0.00 | 0.00 | 44 | 1018.6 |
| 20260510163623 | 78 | 223 | 0.0 | 3.0 | 0.00 | 0.00 | 0.00 | 51 | 1018.9 |
| 20260510163119 | 79 | 226 | 0.0 | 2.0 | 0.00 | 0.00 | 0.00 | 48 | 1018.9 |
| 20260510162614 | 77 | 33 | 2.0 | 6.0 | 0.00 | 0.00 | 0.00 | 48 | 1018.9 |
| 20260510162111 | 77 | 26 | 3.0 | 3.0 | 0.00 | 0.00 | 0.00 | 45 | 1019.1 |
| 20260510161606 | 76 | 10 | 3.0 | 4.0 | 0.00 | 0.00 | 0.00 | 48 | 1019.0 |
| 20260510161104 | 79 | 55 | 4.0 | 6.0 | 0.00 | 0.00 | 0.00 | 45 | 1018.6 |
| 20260510160601 | 78 | 39 | 3.0 | 3.0 | 0.00 | 0.00 | 0.00 | 48 | 1018.9 |
| 20260510160100 | 77 | 250 | 0.0 | 1.0 | 0.00 | 0.00 | 0.00 | 52 | 1018.9 |
| 20260510155557 | 76 | 273 | 0.0 | 2.0 | 0.00 | 0.00 | 0.00 | 54 | 1019.0 |
| 20260510155053 | 79 | 34 | 2.0 | 3.0 | 0.00 | 0.00 | 0.00 | 51 | 1019.1 |
| 20260510154549 | 79 | 239 | 0.0 | 3.0 | 0.00 | 0.00 | 0.00 | 54 | 1019.1 |
| 20260510154044 | 80 | 197 | 1.0 | 1.0 | 0.00 | 0.00 | 0.00 | 49 | 1019.2 |
| 20260510153539 | 79 | 31 | 1.0 | 2.0 | 0.00 | 0.00 | 0.00 | 50 | 1019.0 |
| 20260510153036 | 78 | 216 | 1.0 | 1.0 | 0.00 | 0.00 | 0.00 | 50 | 1019.0 |
| 20260510152528 | 77 | 201 | 1.0 | 4.0 | 0.00 | 0.00 | 0.00 | 58 | 1019.0 |
| 20260510152024 | 77 | 203 | 3.0 | 3.0 | 0.00 | 0.00 | 0.00 | 56 | 1019.2 |
| 20260510151521 | 76 | 246 | 2.0 | 2.0 | 0.00 | 0.00 | 0.00 | 58 | 1019.1 |
| 20260510151018 | 75 | 256 | 1.0 | 3.0 | 0.00 | 0.00 | 0.00 | 59 | 1019.3 |
| 20260510150508 | 76 | 266 | 2.0 | 3.0 | 0.00 | 0.00 | 0.00 | 56 | 1019.2 |
| 20260510150004 | 76 | 248 | 4.0 | 6.0 | 0.00 | 0.00 | 0.00 | 58 | 1019.0 |
| 20260510145501 | 75 | 249 | 1.0 | 2.0 | 0.00 | 0.00 | 0.00 | 57 | 1019.0 |
| 20260510144956 | 75 | 250 | 2.0 | 4.0 | 0.00 | 0.00 | 0.00 | 57 | 1018.9 |
| 20260510144454 | 74 | 255 | 2.0 | 4.0 | 0.00 | 0.00 | 0.00 | 62 | 1019.0 |
| 20260510143949 | 75 | 242 | 1.0 | 2.0 | 0.00 | 0.00 | 0.00 | 60 | 1018.9 |
| 20260510143444 | 75 | 75 | 1.0 | 1.0 | 0.00 | 0.00 | 0.00 | 60 | 1019.0 |
| 20260510142942 | 75 | 207 | 0.0 | 2.0 | 0.00 | 0.00 | 0.00 | 63 | 1019.1 |
| 20260510142438 | 74 | 261 | 1.0 | 2.0 | 0.00 | 0.00 | 0.00 | 65 | 1019.0 |
| 20260510141935 | 74 | 345 | 0.0 | 4.0 | 0.00 | 0.00 | 0.00 | 66 | 1019.0 |
| 20260510141432 | 74 | 273 | 1.0 | 2.0 | 0.00 | 0.00 | 0.00 | 67 | 1018.9 |
| 20260510140929 | 74 | 221 | 0.0 | 1.0 | 0.00 | 0.00 | 0.00 | 69 | 1019.0 |
| 20260510140420 | 74 | 227 | 1.0 | 3.0 | 0.00 | 0.00 | 0.00 | 72 | 1018.8 |
| 20260510135918 | 73 | 260 | 1.0 | 2.0 | 0.00 | 0.00 | 0.00 | 70 | 1018.6 |
| 20260510135410 | 73 | 227 | 1.0 | 3.0 | 0.00 | 0.00 | 0.00 | 72 | 1018.9 |
| 20260510134907 | 72 | 231 | 1.0 | 3.0 | 0.00 | 0.00 | 0.00 | 75 | 1018.8 |
| 20260510134403 | 72 | 238 | 1.0 | 4.0 | 0.00 | 0.00 | 0.00 | 77 | 1018.8 |
| 20260510133900 | 72 | 246 | 1.0 | 3.0 | 0.00 | 0.00 | 0.00 | 79 | 1018.5 |
| 20260510133356 | 71 | 57 | 0.0 | 1.0 | 0.00 | 0.00 | 0.00 | 80 | 1018.7 |
| 20260510132851 | 70 | 278 | 1.0 | 2.0 | 0.00 | 0.00 | 0.00 | 81 | 1018.8 |
| 20260510132349 | 70 | 247 | 1.0 | 2.0 | 0.00 | 0.00 | 0.00 | 81 | 1018.5 |
| 20260510131846 | 68 | 232 | 2.0 | 4.0 | 0.00 | 0.00 | 0.00 | 84 | 1018.6 |
| 20260510131344 | 68 | 234 | 1.0 | 2.0 | 0.00 | 0.00 | 0.00 | 86 | 1018.8 |
| 20260510130840 | 67 | 228 | 3.0 | 4.0 | 0.00 | 0.00 | 0.00 | 88 | 1018.5 |
| 20260510130337 | 66 | 251 | 3.0 | 4.0 | 0.00 | 0.00 | 0.00 | 90 | 1018.5 |
| 20260510125833 | 65 | 265 | 3.0 | 6.0 | 0.00 | 0.00 | 0.00 | 92 | 1018.5 |
| 20260510125324 | 64 | 247 | 1.0 | 3.0 | 0.00 | 0.00 | 0.00 | 95 | 1018.6 |
| 20260510124821 | 63 | 239 | 0.0 | 2.0 | 0.00 | 0.00 | 0.00 | 97 | 1018.4 |
| 20260510124318 | 63 | 234 | 2.0 | 4.0 | 0.00 | 0.00 | 0.00 | 98 | 1018.6 |
| 20260510123814 | 62 | 223 | 2.0 | 4.0 | 0.00 | 0.00 | 0.00 | 99 | 1018.6 |
| 20260510123309 | 62 | 228 | 1.0 | 4.0 | 0.00 | 0.00 | 0.00 | 99 | 1018.5 |
| 20260510122806 | 62 | 251 | 1.0 | 3.0 | 0.00 | 0.00 | 0.00 | 99 | 1018.4 |
| 20260510122306 | 61 | 267 | 4.0 | 6.0 | 0.00 | 0.00 | 0.00 | 99 | 1018.2 |
| 20260510121759 | 61 | 242 | 2.0 | 3.0 | 0.00 | 0.00 | 0.00 | 99 | 1018.3 |
| 20260510121256 | 61 | 238 | 0.0 | 3.0 | 0.00 | 0.00 | 0.00 | 99 | 1018.4 |
| 20260510120753 | 61 | 262 | 1.0 | 3.0 | 0.00 | 0.00 | 0.00 | 99 | 1018.2 |
| 20260510120250 | 61 | 244 | 3.0 | 3.0 | 0.00 | 0.00 | 0.00 | 99 | 1018.2 |
| 20260510115746 | 61 | 258 | 2.0 | 4.0 | 0.00 | 0.00 | 0.00 | 98 | 1018.1 |
| 20260510115244 | 61 | 261 | 2.0 | 3.0 | 0.00 | 0.00 | 0.00 | 98 | 1017.9 |
| 20260510114738 | 61 | 243 | 3.0 | 3.0 | 0.00 | 0.00 | 0.00 | 97 | 1017.8 |
| 20260510114237 | 61 | 225 | 1.0 | 3.0 | 0.00 | 0.00 | 0.00 | 98 | 1017.8 |
| 20260510113731 | 61 | 258 | 1.0 | 3.0 | 0.00 | 0.00 | 0.00 | 99 | 1017.7 |
| 20260510113228 | 61 | 244 | 1.0 | 3.0 | 0.00 | 0.00 | 0.00 | 99 | 1017.6 |
| 20260510112719 | 60 | 233 | 0.0 | 0.0 | 0.00 | 0.00 | 0.00 | 99 | 1017.8 |
| 20260510112216 | 61 | 242 | 0.0 | 0.0 | 0.00 | 0.00 | 0.00 | 99 | 1017.7 |
| 20260510111711 | 60 | 242 | 0.0 | 0.0 | 0.00 | 0.00 | 0.00 | 99 | 1017.4 |
| 20260510111208 | 60 | 242 | 0.0 | 0.0 | 0.00 | 0.00 | 0.00 | 99 | 1017.3 |
| 20260510110702 | 60 | 242 | 0.0 | 0.0 | 0.00 | 0.00 | 0.00 | 99 | 1017.3 |
| 20260510110200 | 59 | 248 | 0.0 | 0.0 | 0.00 | 0.00 | 0.00 | 99 | 1017.3 |
| 20260510105655 | 59 | 253 | 0.0 | 0.0 | 0.00 | 0.00 | 0.00 | 99 | 1017.1 |
| 20260510105155 | 59 | 243 | 0.0 | 0.0 | 0.00 | 0.00 | 0.00 | 99 | 1017.4 |
| 20260510104652 | 59 | 246 | 0.0 | 0.0 | 0.00 | 0.00 | 0.00 | 99 | 1016.8 |
| 20260510104149 | 59 | 243 | 0.0 | 0.0 | 0.00 | 0.00 | 0.00 | 99 | 1017.0 |
| 20260510103646 | 59 | 240 | 0.0 | 0.0 | 0.00 | 0.00 | 0.00 | 99 | 1017.1 |
| 20260510103142 | 59 | 248 | 0.0 | 0.0 | 0.00 | 0.00 | 0.00 | 99 | 1016.9 |
| 20260510102632 | 59 | 253 | 0.0 | 0.0 | 0.00 | 0.00 | 0.00 | 99 | 1016.9 |
| 20260510102129 | 59 | 233 | 0.0 | 0.0 | 0.00 | 0.00 | 0.00 | 99 | 1016.9 |
| 20260510101626 | 60 | 243 | 0.0 | 0.0 | 0.00 | 0.00 | 0.00 | 99 | 1016.7 |
| 20260510101124 | 59 | 244 | 0.0 | 0.0 | 0.00 | 0.00 | 0.00 | 99 | 1016.7 |
| 20260510100620 | 59 | 235 | 0.0 | 0.0 | 0.00 | 0.00 | 0.00 | 99 | 1016.7 |
| 20260510100117 | 60 | 237 | 0.0 | 0.0 | 0.00 | 0.00 | 0.00 | 99 | 1016.6 |
| 20260510093107 | 60 | 243 | 0.0 | 0.0 | 0.00 | 0.00 | 0.00 | 99 | 1016.3 |
| 20260510092604 | 60 | 243 | 0.0 | 0.0 | 0.00 | 0.00 | 0.00 | 99 | 1016.3 |
| 20260510092103 | 60 | 243 | 0.0 | 0.0 | 0.00 | 0.00 | 0.00 | 99 | 1016.1 |
| 20260510091600 | 60 | 243 | 0.0 | 0.0 | 0.00 | 0.00 | 0.00 | 99 | 1016.3 |
| 20260510091056 | 60 | 236 | 0.0 | 0.0 | 0.00 | 0.00 | 0.00 | 99 | 1016.2 |
| 20260510090554 | 60 | 243 | 0.0 | 1.0 | 0.00 | 0.00 | 0.00 | 99 | 1016.3 |
| 20260510090049 | 60 | 250 | 0.0 | 2.0 | 0.00 | 0.00 | 0.00 | 99 | 1016.1 |
| 20260510085544 | 60 | 243 | 1.0 | 2.0 | 0.00 | 0.00 | 0.00 | 99 | 1016.0 |
| 20260510085040 | 60 | 239 | 1.0 | 1.0 | 0.00 | 0.00 | 0.00 | 99 | 1016.1 |
| 20260510084537 | 61 | 252 | 1.0 | 2.0 | 0.00 | 0.00 | 0.00 | 99 | 1016.2 |
| 20260510084034 | 61 | 243 | 0.0 | 0.0 | 0.00 | 0.00 | 0.00 | 99 | 1015.8 |
| 20260510083530 | 61 | 241 | 0.0 | 1.0 | 0.00 | 0.00 | 0.00 | 99 | 1015.9 |
| 20260510083027 | 61 | 238 | 0.0 | 1.0 | 0.00 | 0.00 | 0.00 | 99 | 1015.7 |
| 20260510082524 | 61 | 254 | 1.0 | 2.0 | 0.00 | 0.00 | 0.00 | 99 | 1015.6 |
| 20260510082019 | 61 | 246 | 1.0 | 2.0 | 0.00 | 0.00 | 0.00 | 98 | 1015.6 |
| 20260510081514 | 61 | 248 | 1.0 | 2.0 | 0.00 | 0.00 | 0.00 | 98 | 1015.4 |
| 20260510081010 | 61 | 239 | 2.0 | 2.0 | 0.00 | 0.00 | 0.00 | 98 | 1015.6 |
| 20260510080509 | 61 | 258 | 2.0 | 2.0 | 0.00 | 0.00 | 0.00 | 98 | 1015.5 |
| 20260510080006 | 61 | 269 | 1.0 | 2.0 | 0.00 | 0.00 | 0.00 | 98 | 1015.5 |
| 20260510075504 | 61 | 245 | 1.0 | 2.0 | 0.00 | 0.00 | 0.00 | 98 | 1015.4 |
| 20260510075000 | 61 | 240 | 1.0 | 2.0 | 0.00 | 0.00 | 0.00 | 98 | 1015.4 |
| 20260510074458 | 61 | 246 | 1.0 | 2.0 | 0.00 | 0.00 | 0.00 | 98 | 1015.5 |
| 20260510073953 | 61 | 235 | 1.0 | 2.0 | 0.00 | 0.00 | 0.00 | 98 | 1015.5 |
| 20260510073449 | 61 | 240 | 0.0 | 0.0 | 0.00 | 0.00 | 0.00 | 98 | 1015.4 |
| 20260510072946 | 61 | 225 | 0.0 | 1.0 | 0.00 | 0.00 | 0.00 | 98 | 1015.4 |
| 20260510072443 | 61 | 235 | 0.0 | 2.0 | 0.00 | 0.00 | 0.00 | 98 | 1015.2 |
| 20260510071938 | 61 | 249 | 0.0 | 0.0 | 0.00 | 0.00 | 0.00 | 97 | 1015.3 |
| 20260510071435 | 61 | 228 | 0.0 | 0.0 | 0.00 | 0.00 | 0.00 | 97 | 1015.2 |
| 20260510070933 | 61 | 235 | 0.0 | 2.0 | 0.00 | 0.00 | 0.00 | 97 | 1015.3 |
| 20260510070430 | 61 | 241 | 0.0 | 0.0 | 0.00 | 0.00 | 0.00 | 97 | 1015.3 |
| 20260510065926 | 61 | 240 | 0.0 | 0.0 | 0.00 | 0.00 | 0.00 | 97 | 1015.3 |
| 20260510065423 | 62 | 250 | 0.0 | 0.0 | 0.00 | 0.00 | 0.00 | 97 | 1015.4 |
| 20260510064919 | 62 | 237 | 0.0 | 2.0 | 0.00 | 0.00 | 0.00 | 96 | 1015.4 |
| 20260510064417 | 62 | 249 | 1.0 | 2.0 | 0.00 | 0.00 | 0.00 | 96 | 1015.3 |
| 20260510063913 | 62 | 266 | 0.0 | 0.0 | 0.00 | 0.00 | 0.00 | 96 | 1015.5 |
| 20260510063409 | 62 | 241 | 0.0 | 1.0 | 0.00 | 0.00 | 0.00 | 96 | 1015.1 |
| 20260510062907 | 62 | 245 | 1.0 | 1.0 | 0.00 | 0.00 | 0.00 | 96 | 1015.4 |
| 20260510062401 | 62 | 237 | 0.0 | 2.0 | 0.00 | 0.00 | 0.00 | 95 | 1015.6 |
| 20260510061858 | 62 | 248 | 1.0 | 1.0 | 0.00 | 0.00 | 0.00 | 95 | 1015.4 |
| 20260510061354 | 62 | 235 | 1.0 | 3.0 | 0.00 | 0.00 | 0.00 | 95 | 1015.4 |
| 20260510060850 | 62 | 235 | 0.0 | 2.0 | 0.00 | 0.00 | 0.00 | 95 | 1015.8 |
| 20260510060347 | 62 | 230 | 0.0 | 2.0 | 0.00 | 0.00 | 0.00 | 95 | 1015.6 |
| 20260510055843 | 62 | 245 | 0.0 | 2.0 | 0.00 | 0.00 | 0.00 | 95 | 1015.5 |
| 20260510055343 | 62 | 259 | 0.0 | 4.0 | 0.00 | 0.00 | 0.00 | 94 | 1015.4 |
| 20260510054837 | 63 | 246 | 1.0 | 3.0 | 0.00 | 0.00 | 0.00 | 94 | 1015.4 |
| 20260510054333 | 63 | 250 | 0.0 | 2.0 | 0.00 | 0.00 | 0.00 | 94 | 1015.5 |
| 20260510053827 | 63 | 239 | 1.0 | 2.0 | 0.00 | 0.00 | 0.00 | 93 | 1015.8 |
| 20260510053323 | 63 | 228 | 1.0 | 3.0 | 0.00 | 0.00 | 0.00 | 93 | 1015.6 |
| 20260510052820 | 63 | 247 | 2.0 | 3.0 | 0.00 | 0.00 | 0.00 | 93 | 1015.6 |
| 20260510052316 | 63 | 238 | 2.0 | 3.0 | 0.00 | 0.00 | 0.00 | 93 | 1015.8 |
| 20260510051812 | 63 | 253 | 1.0 | 6.0 | 0.00 | 0.00 | 0.00 | 93 | 1015.9 |
| 20260510051309 | 63 | 244 | 2.0 | 3.0 | 0.00 | 0.00 | 0.00 | 93 | 1015.7 |
| 20260510050805 | 63 | 233 | 1.0 | 3.0 | 0.00 | 0.00 | 0.00 | 92 | 1015.8 |
| 20260510050257 | 64 | 231 | 2.0 | 3.0 | 0.00 | 0.00 | 0.00 | 92 | 1015.9 |
| 20260510045754 | 64 | 239 | 0.0 | 4.0 | 0.00 | 0.00 | 0.00 | 92 | 1015.8 |
| 20260510045250 | 64 | 250 | 3.0 | 4.0 | 0.00 | 0.00 | 0.00 | 92 | 1015.9 |
| 20260510044748 | 64 | 248 | 1.0 | 2.0 | 0.00 | 0.00 | 0.00 | 92 | 1016.1 |
| 20260510044245 | 64 | 268 | 0.0 | 6.0 | 0.00 | 0.00 | 0.00 | 92 | 1016.1 |
| 20260510043740 | 64 | 250 | 1.0 | 3.0 | 0.00 | 0.00 | 0.00 | 92 | 1016.0 |
| 20260510043237 | 64 | 239 | 1.0 | 3.0 | 0.00 | 0.00 | 0.00 | 91 | 1016.1 |
| 20260510042734 | 64 | 235 | 1.0 | 6.0 | 0.00 | 0.00 | 0.00 | 92 | 1015.8 |
| 20260510042229 | 64 | 250 | 1.0 | 3.0 | 0.00 | 0.00 | 0.00 | 91 | 1016.2 |
| 20260510041727 | 64 | 263 | 1.0 | 2.0 | 0.00 | 0.00 | 0.00 | 91 | 1016.2 |
| 20260510041224 | 64 | 243 | 0.0 | 4.0 | 0.00 | 0.00 | 0.00 | 91 | 1016.4 |
| 20260510040721 | 64 | 242 | 2.0 | 3.0 | 0.00 | 0.00 | 0.00 | 91 | 1016.1 |
| 20260510040218 | 64 | 252 | 3.0 | 6.0 | 0.00 | 0.00 | 0.00 | 91 | 1016.1 |
| 20260510035713 | 64 | 250 | 2.0 | 3.0 | 0.00 | 0.00 | 0.00 | 91 | 1016.2 |
| 20260510035209 | 64 | 249 | 3.0 | 6.0 | 0.00 | 0.00 | 0.00 | 91 | 1015.9 |
| 20260510034705 | 64 | 241 | 1.0 | 3.0 | 0.00 | 0.00 | 0.00 | 91 | 1016.1 |
| 20260510034203 | 64 | 237 | 1.0 | 2.0 | 0.00 | 0.00 | 0.00 | 91 | 1015.9 |
| 20260510033659 | 64 | 259 | 1.0 | 2.0 | 0.00 | 0.00 | 0.00 | 91 | 1016.2 |
| 20260510033157 | 64 | 248 | 4.0 | 6.0 | 0.00 | 0.00 | 0.00 | 91 | 1016.0 |
| 20260510032653 | 64 | 232 | 0.0 | 3.0 | 0.00 | 0.00 | 0.00 | 91 | 1015.9 |
| 20260510032149 | 64 | 240 | 1.0 | 3.0 | 0.00 | 0.00 | 0.00 | 91 | 1015.9 |
| 20260510031643 | 64 | 256 | 0.0 | 2.0 | 0.00 | 0.00 | 0.00 | 91 | 1016.0 |
| 20260510031140 | 64 | 227 | 1.0 | 3.0 | 0.00 | 0.00 | 0.00 | 91 | 1015.9 |
| 20260510030635 | 64 | 237 | 0.0 | 1.0 | 0.00 | 0.00 | 0.00 | 91 | 1016.0 |
| 20260510030133 | 64 | 239 | 0.0 | 1.0 | 0.00 | 0.00 | 0.00 | 91 | 1015.8 |
| 20260510025629 | 64 | 247 | 1.0 | 2.0 | 0.00 | 0.00 | 0.00 | 90 | 1015.8 |
| 20260510025127 | 64 | 240 | 0.0 | 1.0 | 0.00 | 0.00 | 0.00 | 90 | 1015.7 |
| 20260510024624 | 64 | 250 | 0.0 | 1.0 | 0.00 | 0.00 | 0.00 | 90 | 1015.7 |
| 20260510024120 | 64 | 246 | 1.0 | 2.0 | 0.00 | 0.00 | 0.00 | 90 | 1015.4 |
| 20260510023616 | 64 | 246 | 0.0 | 1.0 | 0.00 | 0.00 | 0.00 | 89 | 1015.5 |
| 20260510023114 | 64 | 230 | 0.0 | 1.0 | 0.00 | 0.00 | 0.00 | 89 | 1015.3 |
| 20260510022614 | 65 | 261 | 0.0 | 1.0 | 0.00 | 0.00 | 0.00 | 89 | 1015.4 |
| 20260510022108 | 65 | 193 | 1.0 | 1.0 | 0.00 | 0.00 | 0.00 | 88 | 1015.4 |
| 20260510021604 | 65 | 233 | 1.0 | 2.0 | 0.00 | 0.00 | 0.00 | 88 | 1015.3 |
| 20260510021102 | 65 | 234 | 1.0 | 2.0 | 0.00 | 0.00 | 0.00 | 88 | 1015.3 |
| 20260510020556 | 65 | 214 | 1.0 | 3.0 | 0.00 | 0.00 | 0.00 | 88 | 1015.2 |
| 20260510020052 | 65 | 240 | 1.0 | 4.0 | 0.00 | 0.00 | 0.00 | 88 | 1015.2 |
| 20260510015548 | 65 | 235 | 0.0 | 2.0 | 0.00 | 0.00 | 0.00 | 88 | 1015.0 |
| 20260510015044 | 65 | 202 | 1.0 | 3.0 | 0.00 | 0.00 | 0.00 | 87 | 1015.0 |
| 20260510014540 | 65 | 222 | 0.0 | 2.0 | 0.00 | 0.00 | 0.00 | 87 | 1015.1 |
| 20260510014038 | 65 | 214 | 1.0 | 4.0 | 0.00 | 0.00 | 0.00 | 87 | 1015.1 |
| 20260510013532 | 65 | 213 | 0.0 | 1.0 | 0.00 | 0.00 | 0.00 | 87 | 1014.8 |
| 20260510013028 | 65 | 197 | 0.0 | 3.0 | 0.00 | 0.00 | 0.00 | 87 | 1014.6 |
| 20260510012522 | 65 | 185 | 0.0 | 1.0 | 0.00 | 0.00 | 0.00 | 87 | 1014.7 |
| 20260510012019 | 65 | 187 | 0.0 | 0.0 | 0.00 | 0.00 | 0.00 | 87 | 1014.6 |
| 20260510011519 | 66 | 220 | 0.0 | 1.0 | 0.00 | 0.00 | 0.00 | 86 | 1014.6 |
| 20260510011014 | 66 | 246 | 0.0 | 2.0 | 0.00 | 0.00 | 0.00 | 86 | 1014.6 |
| 20260510010512 | 66 | 196 | 1.0 | 3.0 | 0.00 | 0.00 | 0.00 | 86 | 1014.5 |
| 20260510010009 | 66 | 236 | 2.0 | 2.0 | 0.00 | 0.00 | 0.00 | 86 | 1014.3 |
| 20260510005504 | 66 | 233 | 0.0 | 1.0 | 0.00 | 0.00 | 0.00 | 85 | 1014.4 |
| 20260510005002 | 66 | 228 | 0.0 | 2.0 | 0.00 | 0.00 | 0.00 | 85 | 1014.3 |
| 20260510004459 | 66 | 201 | 1.0 | 2.0 | 0.00 | 0.00 | 0.00 | 85 | 1014.3 |
| 20260510003957 | 66 | 209 | 1.0 | 2.0 | 0.00 | 0.00 | 0.00 | 84 | 1014.3 |
| 20260510003454 | 66 | 231 | 0.0 | 1.0 | 0.00 | 0.00 | 0.00 | 84 | 1014.4 |
| 20260510002949 | 66 | 216 | 0.0 | 2.0 | 0.00 | 0.00 | 0.00 | 84 | 1014.3 |
| 20260510002445 | 66 | 241 | 2.0 | 3.0 | 0.00 | 0.00 | 0.00 | 83 | 1014.3 |
| 20260510001942 | 67 | 230 | 0.0 | 0.0 | 0.00 | 0.00 | 0.00 | 83 | 1014.2 |
| 20260510001439 | 67 | 226 | 0.0 | 0.0 | 0.00 | 0.00 | 0.00 | 82 | 1014.2 |
| 20260510000937 | 67 | 278 | 1.0 | 1.0 | 0.00 | 0.00 | 0.00 | 82 | 1013.8 |
| 20260510000433 | 68 | 228 | 0.0 | 2.0 | 0.00 | 0.00 | 0.00 | 81 | 1014.2 |
| 20260509235929 | 68 | 214 | 1.0 | 2.0 | 0.00 | 0.00 | 0.00 | 81 | 1014.2 |
| 20260509235426 | 68 | 231 | 0.0 | 2.0 | 0.00 | 0.00 | 0.00 | 80 | 1014.1 |
| 20260509234922 | 68 | 234 | 0.0 | 2.0 | 0.00 | 0.00 | 0.00 | 80 | 1014.0 |
| 20260509234419 | 68 | 224 | 0.0 | 2.0 | 0.00 | 0.00 | 0.00 | 79 | 1014.0 |
| 20260509233917 | 69 | 202 | 3.0 | 4.0 | 0.00 | 0.00 | 0.00 | 79 | 1013.7 |
| 20260509233415 | 69 | 241 | 1.0 | 2.0 | 0.00 | 0.00 | 0.00 | 78 | 1013.5 |
| 20260509232910 | 69 | 224 | 0.0 | 1.0 | 0.00 | 0.00 | 0.00 | 79 | 1013.5 |
| 20260509232409 | 69 | 223 | 0.0 | 1.0 | 0.00 | 0.00 | 0.00 | 78 | 1013.8 |
| 20260509231904 | 69 | 237 | 0.0 | 0.0 | 0.00 | 0.00 | 0.00 | 78 | 1013.4 |
| 20260509231401 | 69 | 199 | 0.0 | 8.0 | 0.00 | 0.00 | 0.00 | 76 | 1013.6 |
| 20260509230859 | 70 | 164 | 2.0 | 3.0 | 0.00 | 0.00 | 0.00 | 76 | 1013.6 |
| 20260509230356 | 70 | 232 | 1.0 | 3.0 | 0.00 | 0.00 | 0.00 | 75 | 1013.3 |
| 20260509225851 | 70 | 248 | 0.0 | 2.0 | 0.00 | 0.00 | 0.00 | 76 | 1013.3 |
| 20260509225348 | 70 | 193 | 1.0 | 3.0 | 0.00 | 0.00 | 0.00 | 75 | 1013.7 |
| 20260509224844 | 71 | 185 | 1.0 | 2.0 | 0.00 | 0.00 | 0.00 | 74 | 1013.5 |
| 20260509224340 | 71 | 205 | 0.0 | 1.0 | 0.00 | 0.00 | 0.00 | 75 | 1013.4 |
| 20260509223837 | 71 | 209 | 1.0 | 2.0 | 0.00 | 0.00 | 0.00 | 74 | 1013.1 |
| 20260509223334 | 71 | 215 | 3.0 | 4.0 | 0.00 | 0.00 | 0.00 | 73 | 1013.1 |
| 20260509222831 | 72 | 230 | 0.0 | 3.0 | 0.00 | 0.00 | 0.00 | 72 | 1013.3 |
| 20260509222326 | 72 | 197 | 2.0 | 3.0 | 0.00 | 0.00 | 0.00 | 71 | 1013.4 |
| 20260509221822 | 72 | 229 | 0.0 | 1.0 | 0.00 | 0.00 | 0.00 | 73 | 1013.2 |
| 20260509221320 | 72 | 201 | 1.0 | 2.0 | 0.00 | 0.00 | 0.00 | 72 | 1013.1 |
| 20260509220819 | 71 | 198 | 0.0 | 1.0 | 0.00 | 0.00 | 0.00 | 74 | 1013.3 |
| 20260509220316 | 72 | 247 | 0.0 | 4.0 | 0.00 | 0.00 | 0.00 | 72 | 1013.1 |
| 20260509215811 | 73 | 252 | 0.0 | 3.0 | 0.00 | 0.00 | 0.00 | 70 | 1013.4 |
| 20260509215308 | 73 | 155 | 0.0 | 1.0 | 0.00 | 0.00 | 0.00 | 71 | 1013.2 |
| 20260509214805 | 73 | 242 | 1.0 | 4.0 | 0.00 | 0.00 | 0.00 | 70 | 1013.2 |
| 20260509214302 | 73 | 225 | 2.0 | 4.0 | 0.00 | 0.00 | 0.00 | 71 | 1013.1 |
| 20260509213759 | 73 | 232 | 0.0 | 3.0 | 0.00 | 0.00 | 0.00 | 71 | 1013.0 |
| 20260509213255 | 73 | 123 | 0.0 | 1.0 | 0.00 | 0.00 | 0.00 | 74 | 1012.9 |
| 20260509212752 | 72 | 262 | 0.0 | 2.0 | 0.00 | 0.00 | 0.00 | 71 | 1012.8 |
| 20260509212250 | 72 | 212 | 1.0 | 2.0 | 0.00 | 0.00 | 0.00 | 71 | 1012.8 |
| 20260509211745 | 73 | 190 | 2.0 | 4.0 | 0.00 | 0.00 | 0.00 | 71 | 1012.9 |
| 20260509211242 | 73 | 182 | 2.0 | 4.0 | 0.00 | 0.00 | 0.00 | 71 | 1013.0 |
| 20260509210738 | 73 | 228 | 0.0 | 2.0 | 0.00 | 0.00 | 0.00 | 71 | 1012.9 |
| 20260509210237 | 75 | 276 | 0.0 | 2.0 | 0.00 | 0.00 | 0.00 | 69 | 1012.8 |
| 20260509205735 | 74 | 204 | 1.0 | 1.0 | 0.00 | 0.00 | 0.00 | 70 | 1012.9 |
| 20260509205236 | 73 | 178 | 5.0 | 6.0 | 0.00 | 0.00 | 0.00 | 69 | 1013.0 |
| 20260509204732 | 73 | 235 | 0.0 | 6.0 | 0.00 | 0.00 | 0.00 | 71 | 1013.0 |
| 20260509204229 | 73 | 177 | 0.0 | 3.0 | 0.00 | 0.00 | 0.00 | 72 | 1012.9 |
| 20260509203724 | 73 | 228 | 1.0 | 6.0 | 0.00 | 0.00 | 0.00 | 69 | 1013.0 |
| 20260509203223 | 75 | 225 | 1.0 | 2.0 | 0.00 | 0.00 | 0.00 | 67 | 1013.2 |
| 20260509202718 | 76 | 224 | 1.0 | 2.0 | 0.00 | 0.00 | 0.00 | 67 | 1013.1 |
| 20260509202213 | 76 | 206 | 2.0 | 4.0 | 0.00 | 0.00 | 0.00 | 63 | 1013.3 |
| 20260509201709 | 76 | 204 | 1.0 | 3.0 | 0.00 | 0.00 | 0.00 | 63 | 1013.3 |
| 20260509201206 | 75 | 203 | 1.0 | 3.0 | 0.00 | 0.00 | 0.00 | 65 | 1013.2 |
| 20260509200702 | 73 | 218 | 3.0 | 4.0 | 0.00 | 0.00 | 0.00 | 67 | 1013.1 |
| 20260509200157 | 74 | 219 | 2.0 | 3.0 | 0.00 | 0.00 | 0.00 | 67 | 1013.2 |
| 20260509195654 | 73 | 269 | 2.0 | 3.0 | 0.00 | 0.00 | 0.00 | 68 | 1013.2 |
| 20260509195149 | 73 | 242 | 2.0 | 3.0 | 0.00 | 0.00 | 0.00 | 68 | 1013.4 |
| 20260509194648 | 74 | 162 | 0.0 | 3.0 | 0.00 | 0.00 | 0.00 | 69 | 1013.1 |
| 20260509194146 | 73 | 235 | 0.0 | 3.0 | 0.00 | 0.00 | 0.00 | 68 | 1013.3 |
| 20260509193641 | 72 | 217 | 0.0 | 3.0 | 0.00 | 0.00 | 0.00 | 72 | 1013.4 |
| 20260509193132 | 72 | 234 | 2.0 | 4.0 | 0.00 | 0.00 | 0.00 | 69 | 1013.4 |
| 20260509192629 | 72 | 178 | 3.0 | 6.0 | 0.00 | 0.00 | 0.00 | 70 | 1013.5 |
| 20260509192123 | 72 | 187 | 0.0 | 3.0 | 0.00 | 0.00 | 0.00 | 72 | 1013.5 |
| 20260509191618 | 73 | 244 | 1.0 | 2.0 | 0.00 | 0.00 | 0.00 | 70 | 1013.4 |
| 20260509191115 | 73 | 226 | 1.0 | 2.0 | 0.00 | 0.00 | 0.00 | 68 | 1013.6 |
| 20260509190611 | 73 | 213 | 0.0 | 1.0 | 0.00 | 0.00 | 0.00 | 69 | 1013.4 |
| 20260509190109 | 72 | 232 | 0.0 | 1.0 | 0.00 | 0.00 | 0.00 | 70 | 1013.2 |
| 20260509185606 | 72 | 270 | 3.0 | 6.0 | 0.00 | 0.00 | 0.00 | 70 | 1013.5 |
| 20260509185102 | 73 | 230 | 0.0 | 1.0 | 0.00 | 0.00 | 0.00 | 70 | 1013.6 |
| 20260509184601 | 73 | 242 | 0.0 | 4.0 | 0.00 | 0.00 | 0.00 | 67 | 1013.2 |
| 20260509184057 | 72 | 186 | 1.0 | 2.0 | 0.00 | 0.00 | 0.00 | 70 | 1013.3 |
| 20260509183552 | 72 | 192 | 2.0 | 4.0 | 0.00 | 0.00 | 0.00 | 69 | 1013.8 |
| 20260509183048 | 72 | 241 | 2.0 | 6.0 | 0.00 | 0.00 | 0.00 | 71 | 1014.1 |
| 20260509182545 | 71 | 281 | 4.0 | 6.0 | 0.00 | 0.00 | 0.00 | 72 | 1013.7 |
| 20260509182042 | 71 | 264 | 0.0 | 6.0 | 0.00 | 0.00 | 0.00 | 72 | 1013.7 |
| 20260509181540 | 71 | 242 | 2.0 | 4.0 | 0.00 | 0.00 | 0.00 | 74 | 1013.7 |
| 20260509181037 | 71 | 248 | 3.0 | 4.0 | 0.00 | 0.00 | 0.00 | 72 | 1013.7 |
| 20260509180533 | 71 | 250 | 3.0 | 6.0 | 0.00 | 0.00 | 0.00 | 73 | 1013.6 |
| 20260509180030 | 70 | 244 | 0.0 | 3.0 | 0.00 | 0.00 | 0.00 | 75 | 1013.6 |
| 20260509175525 | 71 | 248 | 2.0 | 7.0 | 0.00 | 0.00 | 0.00 | 76 | 1013.6 |
| 20260509175023 | 71 | 248 | 4.0 | 6.0 | 0.00 | 0.00 | 0.00 | 73 | 1014.1 |
| 20260509174519 | 71 | 264 | 2.0 | 2.0 | 0.00 | 0.00 | 0.00 | 75 | 1013.8 |